Regional Weather Roundup
Issued by NWS Newport/Morehead, NC

Current Version | Previous Version | Graphics & Text | Print | Product List | Glossary On
Versions: 1 2 3 4 5 6 7 8 9 10 11 12 13 14 15 16 17 18 19 20 21 22 23 24 25 26 27 28 29 30 31 32 33 34 35 36 37 38 39 40 41 42 43 44 45 46 47 48 49 50
000 ASUS42 KMHX 030813 RWRMHX WEATHER ROUNDUP FOR EASTERN NORTH CAROLINA NATIONAL WEATHER SERVICE NEWPORT/MOREHEAD CITY NC 400 AM EDT FRI JUL 03 2015 NOTE: "FAIR" INDICATES FEW OR NO CLOUDS BELOW 12,000 FEET WITH NO SIGNIFICANT WEATHER AND/OR OBSTRUCTIONS TO VISIBILITY NCZ015>017-031-032-045>047-102-103-030900- NORTH COAST CITY SKY/WX TMP DP RH WIND PRES REMARKS EDENTON MOCLDY 70 69 95 N3 29.88F FOG ELIZABETH CITY MOCLDY 72 70 93 N7 29.87F KITTY HAWK FOG 71 69 94 CALM 29.85F VSB 3/4 MANTEO MOCLDY 73 72 99 CALM 29.86F $$ NCZ045>047-081-094-103-104-030900- CENTRAL COAST CITY SKY/WX TMP DP RH WIND PRES REMARKS FRISCO PTCLDY 77 71 82 NW7 29.88F SWANQUARTER N/A 75 N/A N/A W12 29.85S $$ NCZ095-097-098-100-101-030900- SOUTHERN COAST CITY SKY/WX TMP DP RH WIND PRES REMARKS BEAUFORT PTCLDY 74 68 81 W5 29.92R CEDAR ISLAND N/A 75 N/A N/A SW12 29.94S JACKSONVILLE MOCLDY 72 68 87 W7 29.92R PINEY ISLAND SUNNY N/A N/A N/A W8 29.90F WILMINGTON MOCLDY 72 69 90 SW9 29.95R $$ NCZ011>013-027>030-043-044-078>080-089-090>093-098-030900- COASTAL PLAIN CITY SKY/WX TMP DP RH WIND PRES REMARKS AHOSKIE MOCLDY 70 69 95 CALM 29.90R CLINTON CLOUDY 71 69 93 SW6 29.93R ELIZABETHTOWN PTCLDY 71 69 94 W3 29.93R GOLDSBORO CLOUDY 72 70 93 SW5 29.89R GREENVILLE MOCLDY 72 72 100 CALM 29.92R HAVELOCK PTCLDY 72 67 84 S3 29.92S KENANSVILLE CLOUDY 71 67 89 SW5 29.93R KINSTON CLOUDY 72 70 94 S6 29.91S NEW BERN PTCLDY 71 67 87 SW6 29.92S RICHLANDS CLOUDY 72 64 78 SW5 29.94R ROCKY MOUNT CLOUDY 72 71 97 NW3 29.90R FOG WASHINGTON CLOUDY 72 71 98 CALM 29.90R FOG WHITEVILLE MOCLDY 71 68 92 CALM 29.94R $$ AMZ130-135-150-152-154-156-158-170-250-252-270-ANZ085-086-088-633-658-670-030900- MARINE OBSERVATIONS STATION/POSITION TIME TEMP WIND PRES WAVE SWELL AIR SEA DIR/SP/G HT/PER HT/PER (UTC) (F) (DEG/KT/KT) (MB) (FT/S) (FT/S) CHESAPEAKE LIGHT 0800 73 20/ 13/ 14 1012.3 64 E VA BEACH 0750 76 77 290/ 10/ 12 1011.1 5/ 7 5/ 7 DUCK 0700 71 64 100/ 3/ 5 1010.9 2 E DUCK 0711 73 N/A 2/ 9 OREGON INLET 0700 75 82 280/ 5/ 7 1011.8 13E OREGON INLT 0800 72 N/A 5/ 7 HATTERAS CG 0700 78 78 280/ 10/ 12 1011.9 DIAMOND BUOY 0750 79 82 290/ 12/ 14 1012.0 8/ 7 7/ 7 CAPE LOOKOUT 0800 76 280/ 8/ 10 1012.9 BEAUFORT LAB 0700 76 81 300/ 5/ 7 1012.2 30 SE NEW RVR IN 0708 76 80 270/ 10/ 14 1014.2 27 SE WRIGHTSVLE 0700 80 280/ 8/ 10 N/A 5 SE WRIGHTSVLE 0708 75 79 240/ 8/ 12 1013.7 225 S CAPE HAT 0750 82 80 220/ 19/ 23 1017.1 6/ 7 2/ 9 41 SE CHARLESTON 0750 79 81 230/ 19/ 21 1014.7 5/ 6 2/ 8 $$

USA.gov is the U.S. government's official web portal to all federal, state and local government web resources and services.